Le nostre stazioni meteo in Italia

Pubblicità
Il mio iltempo24.it
Perugia, Italia (16181): Temperatura & dewpoint: 17.01.2019 05:00:00 - 23.01.2019 05:00:00 (CET)Perugia, Italia (16181): velocità del vento: 17.01.2019 05:00:00 - 23.01.2019 05:00:00 (CET)Perugia, Italia (16181): direzione del vento: 17.01.2019 05:00:00 - 23.01.2019 05:00:00 (CET)Perugia, Italia (16181): visibility: 17.01.2019 05:00:00 - 23.01.2019 05:00:00 (CET)
Data & Tempo tt [°C] td [°C] ff [km/h] ff [kn] dd vv [km]
23.01.2019 05:00:00 - - - - - -
23.01.2019 04:00:00 2,0 2,0 2 1 SSE 3,8
23.01.2019 03:00:00 2,0 2,0 2 1 - 6
23.01.2019 02:00:00 2,0 2,0 5 3 SSE 3,7
23.01.2019 01:00:00 2,0 2,0 2 1 S 3,8
23.01.2019 00:00:00 2,0 2,0 8 4 SSO 3,4
22.01.2019 23:00:00 2,0 1,0 2 1 - 6
22.01.2019 22:00:00 2,0 1,0 4 2 NO 4,0
22.01.2019 21:00:00 2,0 1,0 4 2 - 7
22.01.2019 20:00:00 2,0 1,0 4 2 - 7
22.01.2019 19:00:00 2,0 1,0 11 6 NNO 7
22.01.2019 18:00:00 3,0 2,0 13 7 NNO 7
22.01.2019 17:00:00 3,0 2,0 9 5 NNO 7
22.01.2019 16:00:00 3,0 2,0 13 7 NO 10
22.01.2019 15:00:00 4,0 2,0 8 4 NNO 9
22.01.2019 14:00:00 4,0 2,0 11 6 NO 9
22.01.2019 13:00:00 4,0 2,0 15 8 NO 6
22.01.2019 12:00:00 4,0 2,0 13 7 NO 10
22.01.2019 11:00:00 4,0 2,0 16 9 NNO 7
22.01.2019 10:00:00 4,0 1,0 16 9 N 8
22.01.2019 09:00:00 5,0 1,0 16 9 N 10
22.01.2019 08:00:00 5,0 0,0 21 11 NNE 10
22.01.2019 07:00:00 5,0 1,0 18 10 N 10
22.01.2019 06:00:00 5,0 0,0 21 11 NNE 10
22.01.2019 05:00:00 5,0 1,0 18 10 NNE 10
22.01.2019 04:00:00 5,0 1,0 21 11 N 10
22.01.2019 03:00:00 4,0 2,0 15 8 N 10
22.01.2019 02:00:00 4,0 2,0 15 8 N 10
22.01.2019 01:00:00 5,0 2,0 15 8 N 10
22.01.2019 00:00:00 5,0 2,0 11 6 N 10
21.01.2019 23:00:00 5,0 2,0 15 8 N 10
21.01.2019 22:00:00 4,0 2,0 15 8 NNO 10
21.01.2019 21:00:00 5,0 2,0 15 8 N 10
21.01.2019 20:00:00 5,0 2,0 15 8 N 10
21.01.2019 19:00:00 5,0 2,0 16 9 N 9
21.01.2019 18:00:00 5,0 2,0 16 9 N 9
21.01.2019 17:00:00 6,0 2,0 15 8 N 9
21.01.2019 16:00:00 6,0 3,0 21 11 N 9
21.01.2019 15:00:00 6,0 3,0 24 13 N 9
21.01.2019 14:00:00 6,0 3,0 21 11 N 10
21.01.2019 13:00:00 6,0 3,0 21 11 N 10
21.01.2019 12:00:00 6,0 3,0 16 9 N 8
21.01.2019 11:00:00 6,0 4,0 9 5 N 8
21.01.2019 10:00:00 6,0 2,0 15 8 NNE 9
21.01.2019 09:00:00 5,0 2,0 16 9 N 10
21.01.2019 08:00:00 5,0 2,0 16 9 N 10
21.01.2019 07:00:00 4,0 2,0 16 9 N 10
21.01.2019 06:00:00 5,0 2,0 16 9 N 10
21.01.2019 05:00:00 5,0 2,0 22 12 N 10
21.01.2019 04:00:00 4,0 2,0 21 11 N 10
21.01.2019 03:00:00 4,0 2,0 16 9 N 10
21.01.2019 02:00:00 4,0 2,0 15 8 N 10
21.01.2019 01:00:00 4,0 2,0 16 9 N 10
21.01.2019 00:00:00 5,0 3,0 11 6 N 10
20.01.2019 23:00:00 5,0 4,0 11 6 N 9
20.01.2019 22:00:00 5,0 3,0 9 5 N 8
20.01.2019 21:00:00 5,0 4,0 9 5 NNE 8
20.01.2019 20:00:00 6,0 4,0 9 5 NNE 8
20.01.2019 19:00:00 6,0 4,0 11 6 N 8
20.01.2019 18:00:00 6,0 5,0 5 3 NNO 7
20.01.2019 17:00:00 7,0 5,0 8 4 ENE 9
20.01.2019 16:00:00 8,0 5,0 4 2 N 9
20.01.2019 15:00:00 8,0 4,0 8 4 NNO 10
20.01.2019 14:00:00 8,0 5,0 4 2 - 10
20.01.2019 13:00:00 6,0 4,0 2 1 - 8
20.01.2019 12:00:00 5,0 4,0 2 1 - 6
20.01.2019 11:00:00 4,0 3,0 2 1 - 6
20.01.2019 10:00:00 4,0 3,0 2 1 - 2,0
20.01.2019 09:00:00 3,0 3,0 2 1 - 0,8
20.01.2019 08:00:00 3,0 2,0 4 2 - 4,0
20.01.2019 07:00:00 3,0 3,0 2 1 - 1,8
20.01.2019 06:00:00 3,0 3,0 4 2 ENE 2,3
20.01.2019 05:00:00 4,0 2,0 8 4 NO 10
20.01.2019 04:00:00 4,0 2,0 9 5 N 10
20.01.2019 03:00:00 5,0 3,0 9 5 NNO 10
20.01.2019 02:00:00 5,0 3,0 9 5 NNO 10
20.01.2019 01:00:00 5,0 3,0 11 6 NNO 10
20.01.2019 00:00:00 5,0 3,0 9 5 NNO 10
19.01.2019 23:00:00 5,0 4,0 11 6 NNO 10
19.01.2019 22:00:00 5,0 4,0 9 5 N 10
19.01.2019 21:00:00 6,0 3,0 11 6 NNO 10
19.01.2019 20:00:00 6,0 3,0 13 7 NNO 10
19.01.2019 19:00:00 6,0 4,0 13 7 N 10
19.01.2019 18:00:00 7,0 4,0 13 7 NNO 10
19.01.2019 17:00:00 8,0 4,0 13 7 NNO 10
19.01.2019 16:00:00 9,0 4,0 4 2 - 10
19.01.2019 15:00:00 9,0 3,0 11 6 OSO 10
19.01.2019 14:00:00 10,0 2,0 4 2 - 10
19.01.2019 13:00:00 10,0 3,0 2 1 - 10
19.01.2019 12:00:00 9,0 5,0 5 3 NNO 10
19.01.2019 11:00:00 7,0 4,0 4 2 - 10
19.01.2019 10:00:00 5,0 3,0 8 4 N 10
19.01.2019 09:00:00 3,0 2,0 5 3 NNO 10
19.01.2019 08:00:00 1,0 1,0 11 6 N 10
19.01.2019 07:00:00 1,0 0,0 4 2 NE 10
19.01.2019 06:00:00 1,0 1,0 4 2 - 10
19.01.2019 05:00:00 2,0 2,0 4 2 - 10
19.01.2019 04:00:00 2,0 2,0 8 4 N 10
19.01.2019 03:00:00 3,0 2,0 4 2 - 10
19.01.2019 02:00:00 3,0 2,0 4 2 - 10
19.01.2019 01:00:00 3,0 2,0 8 4 N 10
19.01.2019 00:00:00 3,0 2,0 2 1 - 10
18.01.2019 23:00:00 3,0 2,0 5 3 N 10
18.01.2019 22:00:00 3,0 2,0 9 5 N 10
18.01.2019 21:00:00 5,0 3,0 5 3 N 10
18.01.2019 20:00:00 8,0 4,0 8 4 S 10
18.01.2019 19:00:00 9,0 5,0 9 5 SSE 10
18.01.2019 18:00:00 9,0 6,0 11 6 SE 10
18.01.2019 17:00:00 11,0 7,0 11 6 SE 10
18.01.2019 16:00:00 11,0 7,0 9 5 SSE 10
18.01.2019 15:00:00 11,0 7,0 13 7 SE 10
18.01.2019 14:00:00 10,0 7,0 16 9 SE 10
18.01.2019 13:00:00 10,0 8,0 11 6 ESE 10
18.01.2019 12:00:00 9,0 7,0 8 4 SE 7
18.01.2019 11:00:00 9,0 7,0 15 8 SSE 7
18.01.2019 10:00:00 - - - - - -
18.01.2019 09:00:00 9,0 7,0 9 5 SSE 10
18.01.2019 08:00:00 9,0 7,0 15 8 SE 10
18.01.2019 07:00:00 9,0 7,0 15 8 SE 10
18.01.2019 06:00:00 - - - - - -
18.01.2019 05:00:00 8,0 7,0 13 7 SE 10
18.01.2019 04:00:00 9,0 7,0 15 8 SSE 10
18.01.2019 03:00:00 9,0 7,0 9 5 SSE 10
18.01.2019 02:00:00 8,0 6,0 5 3 SSE 10
18.01.2019 01:00:00 8,0 6,0 4 2 SSE 10
18.01.2019 00:00:00 8,0 6,0 8 4 SSE 10
17.01.2019 23:00:00 9,0 7,0 13 7 SSE 9
17.01.2019 22:00:00 9,0 7,0 5 3 S 9
17.01.2019 21:00:00 8,0 7,0 5 3 SE 8
17.01.2019 20:00:00 8,0 7,0 8 4 SSO 8
17.01.2019 19:00:00 8,0 7,0 9 5 SO 8
17.01.2019 18:00:00 9,0 7,0 15 8 SO 10
17.01.2019 17:00:00 - - - - - -
17.01.2019 16:00:00 9,0 7,0 15 8 OSO 10
17.01.2019 15:00:00 12,0 5,0 15 8 S 10
17.01.2019 14:00:00 11,0 4,0 13 7 SSE 10
17.01.2019 13:00:00 11,0 4,0 21 11 SSO 10
17.01.2019 12:00:00 8,0 4,0 4 2 - 10
17.01.2019 11:00:00 8,0 3,0 5 3 NNE 10
17.01.2019 10:00:00 7,0 3,0 5 3 NNO 10
17.01.2019 09:00:00 5,0 2,0 8 4 NO 10
17.01.2019 08:00:00 4,0 1,0 5 3 ONO 10
17.01.2019 07:00:00 3,0 1,0 2 1 - 10
17.01.2019 06:00:00 3,0 1,0 11 6 SE 10
17.01.2019 05:00:00 4,0 1,0 16 9 SE 10

tt = Temperatura
td = dewpoint
ff = velocità del vento
dd = direzione del vento
vv = visibility

Stazioni seguenti

WeatherPro
AMSI
MeteoEarth